This is the latest recevied weather packets stored in our database for station/object WV5G-13. If no packets are shown the sender has not sent any weather packets the latest 10 day(s).
| Time | Temp. | Humidity | Pressure | Rain* | Wind** | Luminosity | Snow |
|---|---|---|---|---|---|---|---|
| 1777667581 | 11.11° C | 68% | 1018 hPa | 0 mm | - | 221 W/m² | - |
| 1777667277 | 11.11° C | 67% | 1018.1 hPa | 0 mm | - | 192 W/m² | - |
| 1777666974 | 11.11° C | 69% | 1017.9 hPa | 0 mm | - | 169 W/m² | - |
| 1777666671 | 11.67° C | 68% | 1017.9 hPa | 0 mm | - | 160 W/m² | - |
| 1777666368 | 11.67° C | 66% | 1018.1 hPa | 0 mm | - | 172 W/m² | - |
| 1777666065 | 11.67° C | 64% | 1017.9 hPa | 0 mm | - | 189 W/m² | - |
| 1777665762 | 11.67° C | 62% | 1018 hPa | 0 mm | - | 192 W/m² | - |
| 1777665459 | 11.67° C | 61% | 1018 hPa | 0 mm | - | 172 W/m² | - |
| 1777665155 | 11.67° C | 60% | 1017.8 hPa | 0 mm | - | 206 W/m² | - |
| 1777664851 | 11.67° C | 63% | 1018 hPa | 0 mm | - | 195 W/m² | - |
| 1777664547 | 11.67° C | 63% | 1017.9 hPa | 0 mm | - | 152 W/m² | - |
| 1777664244 | 11.67° C | 63% | 1018.2 hPa | 0 mm | - | 133 W/m² | - |
| 1777663943 | 11.67° C | 63% | 1018.1 hPa | 0 mm | - | 218 W/m² | - |
| 1777663639 | 11.67° C | 63% | 1018 hPa | 0 mm | - | 263 W/m² | - |
| 1777663336 | 11.67° C | 65% | 1017.9 hPa | 0 mm | - | 272 W/m² | - |
| 1777663034 | 11.67° C | 66% | 1018 hPa | 0 mm | - | 329 W/m² | - |
| 1777662731 | 11.67° C | 68% | 1018 hPa | 0 mm | - | 349 W/m² | - |
| 1777662427 | 11.67° C | 70% | 1018.2 hPa | 0 mm | - | 267 W/m² | - |
| 1777662123 | 11.11° C | 72% | 1018.2 hPa | 0 mm | - | 384 W/m² | - |
| 1777661819 | 11.11° C | 73% | 1018.1 hPa | 0 mm | - | 258 W/m² | - |
| 1777661515 | 11.11° C | 72% | 1018.5 hPa | 0 mm | - | 261 W/m² | - |
| 1777661210 | 11.67° C | 71% | 1018.2 hPa | 0 mm | - | 450 W/m² | - |
| 1777660905 | 11.67° C | 69% | 1018.2 hPa | 0 mm | - | 503 W/m² | - |
| 1777660602 | 11.67° C | 69% | 1018 hPa | 0 mm | - | 380 W/m² | - |
| 1777660298 | 11.67° C | 68% | 1018 hPa | 0 mm | - | 302 W/m² | - |
* Rain latest hour (hover to see other rain measurements)
** Current wind speed in m/s (hover to see current wind gust speed)